2022-058H (52792 NORAD) Tracking and Keplerian Element Data

This shows tracking and keplerian element data for the satellite.

Feedback or suggestion? Click here.




ElementValue
Catalog52792
Name2022-058H
Epoch Orbit1128
Epoch Day229.05242598
Epoch Year2022
RAAN266.8834
Inclination49.9968
Eccentricity0.0016406
Argument of Perigee233.3691
Mean Anonmoly126.573
Mean Motion14.87664424
Decay Rate1.273E-05
L11 52792U 22058H 22229.05242598 .00001273 00000+0 16381-3 0 9998
L22 52792 49.9968 266.8834 0016406 233.3691 126.5730 14.87664424 11285

Live tracking and technical data element details for 2022-058H (NORAD 52792). 2022-058H can be tracked NOW for your location showing map with azimuth and elevation plus other details from your city location.

Track the satellite on the map from your city or location and see movement details for azimuth, elevation, latitude, longitude, range, height, and movement on the map or in text.







IsCatalogInMostPopularTable: catalog: 52792, numindb: 3
Update: records affected: 1



GetName: 52792 2022-058H

Hit Count: updated at: Thu, 18 Aug 2022 19:10:39 GMT